Flag for U.S.A. Weather past 2 weeks in Davenport, Iowa, U.S.A.

Now
59 °F

Clear.


Feels Like: 57 °F
Forecast: 55 / 67 °F
Wind: 13 mph from East

Location: Davenport Municipal Airport

Current Time: Apr 19, 2015 at 12:05:16 AM

Latest Report: Apr 18, 2015 at 10:52 PM


Visibility: 10 mi

Pressure: 29.90 "Hg

Humidity: 56%

Dew point: 43 °F

Location of DavenportLocation

Historic Weather in Davenport — Graph

°F

Davenport temperature yesterday

Maximum temperature yesterday: 78 °F (at 1:52 PM)
Minimum temperature yesterday: 51 °F (at 5:52 AM)
Average temperature yesterday: 64 °F

Past Weeks' High & Low Weather Summary

 TemperatureHumidityPressure
High78 °F (Apr 17, 3:52 PM)97% (Apr 7, 11:52 PM)30.32 "Hg (Apr 7, 11:52 PM)
Low23 °F (Apr 4, 6:52 AM)16% (Apr 5, 2:52 PM)29.42 "Hg (Apr 9, 4:52 PM)
Average54 °F56%30.02 "Hg
* Reported Apr 3 10:52 PM — Apr 18 10:52 PM, Davenport, Weather by CustomWeather, © 2015

Note: Actual official high and low records may vary slightly from our data, if they occured in-between our weather recording intervals... More about our weather records

Advertising

Davenport weather history for previous 24 hours

 ConditionsComfort  
Time TempWeatherWind HumidityBarometerVisibility
10:52 PM
Sat, Apr 18
59 °FClear.13 mph56%29.90 "Hg10 mi
9:52 PM63 °FClear.20 mph48%29.91 "Hg10 mi
8:52 PM67 °FPassing clouds.17 mph47%29.90 "Hg10 mi
7:52 PM67 °FSunny.12 mph55%29.89 "Hg10 mi
6:52 PM70 °FSunny.12 mph53%29.89 "Hg10 mi
5:52 PM72 °FPassing clouds.15 mph53%29.90 "Hg10 mi
4:52 PM72 °FSunny.17 mph48%29.92 "Hg10 mi
3:52 PM71 °FScattered clouds.18 mph51%29.93 "Hg10 mi
2:52 PM72 °FBroken clouds.15 mph49%29.94 "Hg10 mi
1:52 PM78 °FPassing clouds.13 mph40%29.96 "Hg10 mi
12:52 PM76 °FSunny.16 mph43%29.98 "Hg10 mi
11:52 AM75 °FSunny.14 mph43%30.00 "Hg10 mi
10:52 AM73 °FSunny.12 mph46%30.01 "Hg10 mi
9:52 AM68 °FSunny.9 mph53%30.01 "Hg10 mi
8:52 AM64 °FSunny.9 mph61%30.02 "Hg10 mi
7:52 AM57 °FSunny.6 mph74%30.01 "Hg7 mi
6:52 AM54 °FClear.No wind72%30.01 "Hg8 mi
5:52 AM51 °FClear.6 mph80%30.00 "Hg10 mi
4:52 AM52 °FClear.3 mph75%30.01 "Hg9 mi
3:52 AM57 °FClear.3 mph67%30.00 "Hg10 mi
2:52 AM52 °FClear.5 mph77%30.00 "Hg10 mi
1:52 AM55 °FClear.No wind69%30.01 "Hg10 mi
12:52 AM57 °FClear.5 mph64%30.00 "Hg10 mi
Weather by CustomWeather, © 2015

See weather overviewHow to use our weather pages